This demonstration page uses our WeatherBlox Daily Observations layout. Learn more.

Left ArrowRight Arrow

34.16533, -84.80231

Hourly Observations for April 8, 2016

Temp ( °F °C ) Dew Point ( °F °C ) Humidity (%) Winds ( mph kmh ) Pressure ( in mb ) Visibility ( mi km ) Precip ( " mm )
12:53 am 00:53 Mostly Cloudy 51 10.6 46 7.8 83 83 Calm 29.85 1011 10 16 0.00 0.00
1:53 am 01:53 Cloudy 53 11.7 37 2.8 55 55 N 12 19 29.88 1012 10 16 0.00 0.00
2:53 am 02:53 Cloudy 52 11.1 38 3.3 59 59 N 7 11 29.89 1012 10 16 0.00 0.00
3:53 am 03:53 Mostly Cloudy 50 10 38 3.3 63 63 Calm 29.89 1012 10 16 0.00 0.00
4:53 am 04:53 Cloudy 50 10 39 3.9 66 66 Calm 29.88 1012 10 16 0.00 0.00
5:53 am 05:53 Cloudy 49 9.4 40 4.4 71 71 Calm 29.89 1012 10 16 0.00 0.00
6:53 am 06:53 Mostly Clear 47 8.3 39 3.9 74 74 Calm 29.89 1012 10 16 0.00 0.00
7:53 am 07:53 Sunny 46 7.8 39 3.9 77 77 Calm 29.91 1013 10 16 0.00 0.00
8:53 am 08:53 Mostly Sunny 51 10.6 40 4.4 66 66 VRB 3 6 29.92 1013 10 16 0.00 0.00
9:53 am 09:53 Mostly Sunny 53 11.7 39 3.9 59 59 VRB 3 6 29.93 1014 10 16 0.00 0.00
10:53 am 10:53 Partly Cloudy 56 13.3 38 3.3 51 51 VRB 5 7 29.95 1014 10 16 0.00 0.00
11:53 am 11:53 Partly Cloudy 57 13.9 37 2.8 47 47 VRB 6 9 29.96 1015 10 16 0.00 0.00
12:53 pm 12:53 Mostly Cloudy 56 13.3 36 2.2 47 47 VRB 6 9 29.96 1015 10 16 0.00 0.00
1:53 pm 13:53 Mostly Cloudy 56 13.3 36 2.2 47 47 VRB 3 6 29.96 1014 10 16 0.00 0.00
2:53 pm 14:53 Mostly Cloudy 59 15 34 1.1 39 39 VRB 3 6 29.95 1014 10 16 0.00 0.00
3:53 pm 15:53 Mostly Cloudy 59 15 34 1.1 39 39 undefined N/A 29.93 1014 10 16 0.00 0.00
4:53 pm 16:53 Mostly Cloudy 60 15.6 34 1.1 38 38 VRB 5 7 29.93 1013 10 16 0.00 0.00
5:53 pm 17:53 Mostly Cloudy 61 16.1 33 0.6 35 35 VRB 5 7 29.92 1013 10 16 0.00 0.00
6:53 pm 18:53 Partly Cloudy 58 14.4 32 0 38 38 VRB 5 7 29.94 1014 10 16 0.00 0.00
7:53 pm 19:53 Sunny 57 13.9 32 0 39 39 Calm 29.94 1014 10 16 0.00 0.00
8:53 pm 20:53 Clear 53 11.7 33 0.6 47 47 Calm 29.95 1014 10 16 0.00 0.00
9:53 pm 21:53 Clear 53 11.7 32 0 45 45 Calm 29.98 1015 10 16 0.00 0.00
10:53 pm 22:53 Clear 52 11.1 31 -0.6 45 45 Calm 30.01 1016 10 16 0.00 0.00
11:53 pm 23:53 Clear 50 10 31 -0.6 48 48 Calm 30.03 1017 10 16 0.00 0.00

Powered by AerisWeather